International Virtual Aviation Organisation

Russian Federation and Kazakhstan MCD

 

Карточка аэропорта UEEE

Внимание!
Информация на этой странице в стадии наполнения.
Если вы не увидели какой-то информации, или заметили неточность - пожалуйста сообщите нам!
Спасибо!
Команда RU-STAFF
Название аэропортаЯкутск
Название аэропорта (англ.)Yakutsk
Превышение325 ft. (99.1 m.)
Координаты62°5.5920000000002', 129°46.259999999999'
Высота перехода1000m
Эшелон переходаFL050
Коды ответчика3220-3237
Зона ОрВДЯкутск РПИ (UEEE)
Данные METARUEEE 242300Z 31004MPS CAVOK M16/M20 Q1012 R23L/450055 NOSIG RMK QFE750
Проноз погоды (TAF)UEEE 242000Z 2421/2603 32003G08MPS CAVOK TEMPO 2421/2423 VRB01MPS 2100 BR FEW006 OVC070
NOTAMshow/hide NOTAM
AWOS   TABLE

Информация о ВПП

ВПП Длина ВПП (м.) Покрытие Курс ВПП Частота ILS
05R3400Асфальтобетон52 
23L3400Асфальтобетон232111.7

Диспетчерские позиции

Позывной Наименование органа УВД Частота
UEEE_APPЯкутск-Подход129.3
UEEE_R_APPЯкутск-Круг120.3
UEEE_TWRЯкутск-Старт120.0
UEEE_GNDЯкутск-Руление121.7



Спутниковое изображение